When you browse on this site, cookies collect data to enhance your experience and personalize the content and advertising you see.
Visit our Privacy Policy to learn more. By continuing to use the site, you agree to this use of cookies and data.
  • în România
  • Lista ţărilor
  • Pe 7 zile
  • Temperatura apei
  • Hartă satelitară
  • Meteo pe hartă
  • Widget-uri
  • user-avatar
    Intrare

    Meteo pe oră la Encamp

    Astăzi, 26 Iunie, Miercuri

    Timp Temperatura Precipitaţii Vânt Presiune Umiditate
    00:00 +17°C° 0 mm 2 m/s 628 mmHg 44%
    01:00 +17°C° 0 mm 2 m/s 628 mmHg 43%
    02:00 +16°C° 0 mm 2 m/s 628 mmHg 41%
    03:00 +16°C° 0 mm 2 m/s 628 mmHg 40%
    04:00 +17°C° 0 mm 2 m/s 629 mmHg 41%
    05:00 +18°C° 0 mm 2 m/s 629 mmHg 42%
    06:00 +19°C° 0 mm 2 m/s 629 mmHg 43%
    07:00 +22°C° 0 mm 3 m/s 630 mmHg 37%
    08:00 +25°C° 0 mm 3 m/s 631 mmHg 31%
    09:00 +28°C° 0 mm 4 m/s 632 mmHg 24%
    10:00 +29°C° 0 mm 4 m/s 633 mmHg 24%
    11:00 +29°C° 0 mm 4 m/s 633 mmHg 23%
    12:00 +30°C° 0 mm 4 m/s 633 mmHg 22%
    13:00 +30°C° 0 mm 4 m/s 633 mmHg 23%
    14:00 +30°C° 0 mm 4 m/s 633 mmHg 24%
    15:00 +30°C° 0 mm 4 m/s 633 mmHg 25%
    16:00 +28°C° 0 mm 3 m/s 632 mmHg 32%
    17:00 +27°C° 0 mm 2 m/s 632 mmHg 39%
    18:00 +25°C° 0 mm 2 m/s 631 mmHg 45%
    19:00 +24°C° 0 mm 2 m/s 631 mmHg 46%
    20:00 +21°C° 0 mm 2 m/s 630 mmHg 47%
    21:00 +19°C° 0 mm 2 m/s 630 mmHg 47%
    22:00 +19°C° 0 mm 2 m/s 630 mmHg 42%
    23:00 +19°C° 0 mm 2 m/s 630 mmHg 37%

    Mâine, 27 Iunie, Joi

    Timp Temperatura Precipitaţii Vânt Presiune Umiditate
    00:00 +19°C° 0 mm 2 m/s 630 mmHg 32%
    01:00 +19°C° 0 mm 2 m/s 630 mmHg 31%
    02:00 +18°C° 0 mm 2 m/s 630 mmHg 29%
    03:00 +18°C° 0 mm 2 m/s 630 mmHg 28%
    04:00 +19°C° 0 mm 2 m/s 630 mmHg 31%
    05:00 +20°C° 0 mm 2 m/s 631 mmHg 34%
    06:00 +22°C° 0 mm 1 m/s 631 mmHg 37%
    07:00 +25°C° 0 mm 1 m/s 632 mmHg 32%
    08:00 +27°C° 0 mm 1 m/s 633 mmHg 27%
    09:00 +30°C° 0 mm 1 m/s 634 mmHg 21%
    10:00 +31°C° 0 mm 1 m/s 634 mmHg 20%
    11:00 +32°C° 0 mm 1 m/s 634 mmHg 18%
    12:00 +34°C° 0 mm 2 m/s 634 mmHg 17%
    13:00 +32°C° 0 mm 2 m/s 634 mmHg 18%
    14:00 +32°C° 0 mm 2 m/s 634 mmHg 19%
    15:00 +32°C° 0 mm 2 m/s 633 mmHg 20%
    16:00 +30°C° 0 mm 1 m/s 633 mmHg 28%
    17:00 +29°C° 0 mm 1 m/s 632 mmHg 36%
    18:00 +27°C° 0 mm 1 m/s 631 mmHg 44%
    19:00 +25°C° 0 mm 1 m/s 631 mmHg 45%
    20:00 +23°C° 0 mm 1 m/s 630 mmHg 46%
    21:00 +21°C° 0 mm 1 m/s 629 mmHg 47%
    22:00 +21°C° 0 mm 1 m/s 629 mmHg 45%
    23:00 +20°C° 0 mm 1 m/s 629 mmHg 43%

    Poimâine, 28 Iunie, Vineri

    Timp Temperatura Precipitaţii Vânt Presiune Umiditate
    00:00 +19°C° 0 mm 2 m/s 629 mmHg 41%
    01:00 +19°C° 0 mm 2 m/s 628 mmHg 39%
    02:00 +19°C° 0 mm 2 m/s 628 mmHg 37%
    03:00 +19°C° 0 mm 2 m/s 628 mmHg 36%
    04:00 +19°C° 0 mm 2 m/s 628 mmHg 36%
    05:00 +20°C° 0 mm 2 m/s 628 mmHg 36%
    06:00 +20°C° 0 mm 2 m/s 629 mmHg 36%
    07:00 +24°C° 0 mm 1 m/s 630 mmHg 31%
    08:00 +27°C° 0 mm 1 m/s 631 mmHg 25%
    09:00 +30°C° 0 mm 1 m/s 632 mmHg 20%
    10:00 +31°C° 0 mm 1 m/s 632 mmHg 19%
    11:00 +31°C° 0 mm 1 m/s 632 mmHg 19%
    12:00 +32°C° 0 mm 2 m/s 632 mmHg 19%
    13:00 +32°C° 0 mm 2 m/s 631 mmHg 20%
    14:00 +32°C° 0 mm 2 m/s 631 mmHg 21%
    15:00 +31°C° 0 mm 2 m/s 630 mmHg 23%
    16:00 +30°C° 0 mm 2 m/s 630 mmHg 32%
    17:00 +28°C° 0 mm 1 m/s 629 mmHg 41%
    18:00 +26°C° 0 mm 1 m/s 628 mmHg 50%
    19:00 +25°C° 0 mm 1 m/s 628 mmHg 50%
    20:00 +23°C° 0 mm 1 m/s 627 mmHg 50%
    21:00 +21°C° 0 mm 1 m/s 627 mmHg 50%
    22:00 +21°C° 0 mm 1 m/s 627 mmHg 47%
    23:00 +21°C° 0 mm 1 m/s 627 mmHg 45%

    29 Iunie, Sâmbătă

    Timp Temperatura Precipitaţii Vânt Presiune Umiditate
    00:00 +20°C° 0 mm 1 m/s 627 mmHg 42%
    01:00 +20°C° 0 mm 1 m/s 627 mmHg 41%
    02:00 +20°C° 0 mm 1 m/s 627 mmHg 41%
    03:00 +20°C° 0 mm 1 m/s 626 mmHg 40%
    04:00 +20°C° 0 mm 1 m/s 627 mmHg 42%
    05:00 +21°C° 0 mm 1 m/s 627 mmHg 43%
    06:00 +22°C° 0 mm 1 m/s 627 mmHg 45%
    07:00 +24°C° 0 mm 1 m/s 629 mmHg 39%
    08:00 +27°C° 0 mm 1 m/s 630 mmHg 32%
    09:00 +29°C° 0 mm 1 m/s 631 mmHg 26%
    10:00 +30°C° 0 mm 1 m/s 631 mmHg 25%
    11:00 +31°C° 0 mm 1 m/s 631 mmHg 24%
    12:00 +31°C° 0 mm 1 m/s 631 mmHg 24%
    13:00 +30°C° 0 mm 2 m/s 631 mmHg 26%
    14:00 +30°C° 0 mm 2 m/s 630 mmHg 28%
    15:00 +29°C° 0 mm 2 m/s 630 mmHg 30%
    16:00 +28°C° 0 mm 2 m/s 630 mmHg 37%
    17:00 +27°C° 0 mm 2 m/s 629 mmHg 43%
    18:00 +26°C° 0 mm 1 m/s 629 mmHg 50%
    19:00 +24°C° 0.1 mm 1 m/s 629 mmHg 56%
    20:00 +22°C° 0.1 mm 1 m/s 628 mmHg 63%
    21:00 +20°C° 0.1 mm 1 m/s 628 mmHg 69%
    22:00 +19°C° 0 mm 1 m/s 628 mmHg 64%
    23:00 +19°C° 0 mm 1 m/s 628 mmHg 60%

    30 Iunie, Duminică

    Timp Temperatura Precipitaţii Vânt Presiune Umiditate
    00:00 +19°C° 0 mm 1 m/s 628 mmHg 55%
    01:00 +19°C° 0 mm 1 m/s 628 mmHg 54%
    02:00 +19°C° 0 mm 1 m/s 628 mmHg 53%
    03:00 +19°C° 0 mm 1 m/s 628 mmHg 52%
    04:00 +20°C° 0 mm 1 m/s 628 mmHg 53%
    05:00 +21°C° 0 mm 1 m/s 629 mmHg 55%
    06:00 +22°C° 0 mm 1 m/s 629 mmHg 56%
    07:00 +24°C° 0 mm 1 m/s 630 mmHg 47%
    08:00 +26°C° 0 mm 1 m/s 631 mmHg 38%
    09:00 +29°C° 0 mm 1 m/s 632 mmHg 29%
    10:00 +30°C° 0 mm 1 m/s 633 mmHg 28%
    11:00 +31°C° 0 mm 1 m/s 633 mmHg 26%
    12:00 +32°C° 0 mm 2 m/s 633 mmHg 24%
    13:00 +31°C° 0 mm 2 m/s 632 mmHg 27%
    14:00 +30°C° 0 mm 1 m/s 631 mmHg 31%
    15:00 +29°C° 0 mm 1 m/s 631 mmHg 34%
    16:00 +26°C° 0.5 mm 2 m/s 630 mmHg 47%
    17:00 +23°C° 0.5 mm 2 m/s 629 mmHg 60%
    18:00 +19°C° 0.5 mm 2 m/s 628 mmHg 73%
    19:00 +19°C° 0.2 mm 2 m/s 628 mmHg 69%
    20:00 +18°C° 0.2 mm 2 m/s 628 mmHg 65%
    21:00 +18°C° 0.2 mm 2 m/s 628 mmHg 62%
    22:00 +18°C° 0 mm 2 m/s 628 mmHg 56%
    23:00 +18°C° 0 mm 2 m/s 628 mmHg 51%

    1 Iulie, Luni

    Timp Temperatura Precipitaţii Vânt Presiune Umiditate
    00:00 +19°C° 0 mm 1 m/s 628 mmHg 46%
    01:00 +19°C° 0 mm 1 m/s 628 mmHg 45%
    02:00 +18°C° 0 mm 1 m/s 627 mmHg 45%
    03:00 +18°C° 0 mm 1 m/s 627 mmHg 44%
    04:00 +19°C° 0 mm 1 m/s 628 mmHg 46%
    05:00 +20°C° 0 mm 1 m/s 628 mmHg 49%
    06:00 +21°C° 0 mm 1 m/s 629 mmHg 51%
    07:00 +23°C° 0 mm 1 m/s 629 mmHg 46%
    08:00 +25°C° 0 mm 1 m/s 630 mmHg 41%
    09:00 +27°C° 0 mm 1 m/s 631 mmHg 36%
    10:00 +28°C° 0 mm 2 m/s 631 mmHg 35%
    11:00 +28°C° 0 mm 2 m/s 631 mmHg 34%
    12:00 +29°C° 0 mm 2 m/s 631 mmHg 33%
    13:00 +27°C° 1.6 mm 3 m/s 630 mmHg 44%
    14:00 +25°C° 1.6 mm 3 m/s 629 mmHg 55%
    15:00 +22°C° 1.6 mm 3 m/s 628 mmHg 66%
    16:00 +19°C° 4.9 mm 3 m/s 627 mmHg 72%
    17:00 +17°C° 4.9 mm 3 m/s 626 mmHg 79%
    18:00 +13°C° 4.9 mm 3 m/s 625 mmHg 86%
    19:00 +13°C° 0.2 mm 3 m/s 625 mmHg 79%
    20:00 +15°C° 0.2 mm 2 m/s 626 mmHg 72%
    21:00 +16°C° 0.2 mm 1 m/s 626 mmHg 65%
    22:00 +15°C° 0 mm 1 m/s 626 mmHg 64%
    23:00 +15°C° 0 mm 1 m/s 626 mmHg 63%
    Arată mai mult